Weather History for KFCM - August, 2012

Change the Weather History Date:

Saturday, August 18, 2012

  Actual Average Record
Temperature  
Mean Temperature 66 °F -  
Max Temperature 78 °F 78 °F 96 °F (2003)
Min Temperature 53 °F 59 °F 46 °F (2002)
Growing Degree Days 16 (Base 50)    
Moisture  
Dew Point 51 °F    
Average Humidity 61    
Maximum Humidity 90    
Minimum Humidity 32    
Precipitation  
Precipitation 0.10 in - - ()
Sea Level Pressure  
Sea Level Pressure 30.00 in    
Wind  
Wind Speed 4 mph (WSW)    
Max Wind Speed 12 mph    
Max Gust Speed 20 mph    
Visibility 10 miles    
Events Rain , Thunderstorm    
Averages and records for this station are not official NWS values.
T = Trace of Precipitation, MM = Missing Value Source: NWS Daily Summary

Daily Weather History Graph

Daily Weather History Graph

Search for Another Location

Airport or City:

Trip Planner

Search our weather history database for the weather conditions in past years. The results will help you decide how hot, cold, wet, or windy it might be!

Date:

Astronomy

Aug. 18, 2012 Rise Set
Actual Time 6:20 AM CDT 8:14 PM CDT
Civil Twilight 5:48 AM CDT 8:45 PM CDT
Nautical Twilight 5:10 AM CDT 9:23 PM CDT
Astronomical Twilight 4:27 AM CDT 10:05 PM CDT
Moon 7:34 AM CDT (8/18) 8:23 PM CDT (8/18)
Length of Visible Light 14h 56m
Length of Day
13h 54m
New Moon, 1% of the Moon is Illuminated
Aug 18
New Moon
Aug 24
First Quarter
Aug 31
Full
Sep 8
Last Quarter
Sep 15
New

Hourly Weather History & Observations

Time (CDT) Temp. Dew Point Humidity Pressure Visibility Wind Dir Wind Speed Gust Speed Precip Events Conditions
12:53 AM 57.9 °F 51.1 °F 78% 30.03 in 10.0 mi Calm Calm - N/A   Clear
1:53 AM 55.9 °F 51.1 °F 84% 30.02 in 10.0 mi SW 4.6 mph - N/A   Clear
2:53 AM 54.0 °F 51.1 °F 90% 30.01 in 10.0 mi SW 3.5 mph - N/A   Clear
3:53 AM 54.0 °F 51.1 °F 90% 30.01 in 10.0 mi WSW 3.5 mph - N/A   Clear
5:53 AM 53.1 °F 50.0 °F 89% 30.03 in 10.0 mi Calm Calm - N/A   Clear
7:53 AM 57.0 °F 51.1 °F 81% 30.02 in 10.0 mi Calm Calm - N/A   Clear
8:53 AM 61.0 °F 51.1 °F 70% 30.03 in 10.0 mi SSW 3.5 mph - N/A   Clear
9:53 AM 68.0 °F 52.0 °F 56% 30.03 in 10.0 mi South 3.5 mph - N/A   Clear
10:53 AM 71.1 °F 52.0 °F 51% 30.03 in 10.0 mi SSW 6.9 mph - N/A   Clear
11:53 AM 73.9 °F 48.9 °F 41% 30.02 in 10.0 mi Calm Calm - N/A   Partly Cloudy
12:53 PM 75.0 °F 46.9 °F 37% 30.01 in 10.0 mi ENE 4.6 mph - N/A   Scattered Clouds
1:53 PM 75.9 °F 48.9 °F 38% 30.00 in 10.0 mi NNE 5.8 mph - N/A   Mostly Cloudy
2:53 PM 78.1 °F 46.0 °F 32% 29.98 in 10.0 mi Variable 4.6 mph - N/A   Partly Cloudy
3:53 PM 75.9 °F 48.0 °F 37% 29.97 in 10.0 mi NW 8.1 mph - N/A   Clear
4:53 PM 77.0 °F 48.0 °F 36% 29.95 in 10.0 mi West 3.5 mph - N/A   Partly Cloudy
5:53 PM 75.9 °F 48.9 °F 38% 29.95 in 10.0 mi WSW 8.1 mph - N/A   Clear
6:53 PM 73.9 °F 52.0 °F 46% 29.95 in 10.0 mi WSW 5.8 mph - N/A   Scattered Clouds
7:53 PM 69.1 °F 51.1 °F 53% 29.95 in 10.0 mi WSW 4.6 mph - 0.00 in   Partly Cloudy
8:53 PM 64.9 °F 51.1 °F 61% 29.96 in 10.0 mi WSW 8.1 mph - N/A   Partly Cloudy
9:53 PM 66.0 °F 53.1 °F 63% 29.97 in 9.0 mi WNW 11.5 mph 19.6 mph 0.01 in Rain Light Rain
10:53 PM 64.0 °F 55.9 °F 75% 30.00 in 10.0 mi NW 6.9 mph - 0.00 in Thunderstorm Overcast
11:53 PM 60.1 °F 57.0 °F 90% 29.98 in 10.0 mi SW 5.8 mph - 0.09 in Rain Light Rain